GW4305 Weather Reports


time (UTC)temp
C
wind
direction
speed
KPH
gust
KPH
rain 1hr
cm
rain 24hr
cm
rain mn
cm
humidity
%
barometer
mb
20260504081511 7 276 0.0 0.0 0.00 0.00 0.00 74 1016.4
20260504081007 7 273 0.0 0.0 0.00 0.00 0.00 73 1016.4
20260504080504 7 277 0.0 1.6 0.00 0.00 0.00 73 1016.7
20260504050317 12 275 1.6 3.2 0.00 0.00 0.00 43 1015.5
20260504045814 12 174 1.6 8.0 0.00 0.00 0.00 42 1015.6
20260504045314 12 173 4.8 9.7 0.00 0.00 0.00 41 1015.3
20260504044811 12 208 1.6 4.8 0.00 0.00 0.00 41 1015.3
20260504044309 12 280 1.6 4.8 0.00 0.00 0.00 40 1015.2
20260504043806 12 327 3.2 4.8 0.00 0.00 0.00 39 1015.5
20260504043303 12 74 1.6 1.6 0.00 0.00 0.00 41 1015.1
20260504042800 12 344 1.6 3.2 0.00 0.00 0.00 41 1015.1
20260504042257 12 332 4.8 8.0 0.00 0.00 0.00 38 1014.8
20260504041753 12 244 0.0 3.2 0.00 0.00 0.00 37 1015.1
20260504041249 12 328 1.6 9.7 0.00 0.00 0.00 37 1014.8
20260504040745 12 280 3.2 8.0 0.00 0.00 0.00 36 1014.7
20260504040243 12 194 3.2 8.0 0.00 0.00 0.00 36 1014.6
20260504035739 13 120 3.2 8.0 0.00 0.00 0.00 36 1014.4
20260504035236 13 338 4.8 12.9 0.00 0.00 0.00 35 1014.3
20260504034734 13 309 4.8 16.1 0.00 0.00 0.00 36 1014.1
20260504034231 13 142 1.6 3.2 0.00 0.00 0.00 35 1014.2
20260504033728 13 354 3.2 8.0 0.00 0.00 0.00 35 1013.7
20260504033226 13 159 3.2 8.0 0.00 0.00 0.00 35 1013.6
20260504032717 13 186 4.8 14.5 0.00 0.00 0.00 35 1013.5
20260504032215 13 186 0.0 9.7 0.00 0.00 0.00 36 1013.3
20260504031711 13 153 1.6 1.6 0.00 0.00 0.00 36 1013.0
20260504031208 13 98 1.6 4.8 0.00 0.00 0.00 35 1013.0
20260504030704 13 239 1.6 11.3 0.00 0.00 0.00 35 1012.7
20260504030202 13 82 4.8 9.7 0.00 0.00 0.00 35 1012.6
20260504025658 13 81 0.0 3.2 0.00 0.00 0.00 35 1012.4
20260504025155 14 139 4.8 8.0 0.00 0.00 0.00 35 1012.5
20260504024652 14 225 0.0 3.2 0.00 0.00 0.00 35 1012.4
20260504024148 14 87 0.0 3.2 0.00 0.00 0.00 35 1012.3
20260504023645 14 337 0.0 8.0 0.00 0.00 0.00 35 1012.2
20260504023141 14 173 3.2 8.0 0.00 0.00 0.00 35 1012.2
20260504022638 15 138 3.2 4.8 0.00 0.00 0.00 35 1012.3
20260504022133 15 113 3.2 8.0 0.00 0.00 0.00 34 1011.9
20260504021632 15 268 3.2 9.7 0.00 0.00 0.00 34 1011.9
20260504021128 15 38 1.6 11.3 0.00 0.00 0.00 34 1011.7
20260504020625 15 89 4.8 9.7 0.00 0.00 0.00 33 1011.7
20260504020121 16 318 3.2 8.0 0.00 0.00 0.00 33 1011.6
20260504015618 16 33 1.6 12.9 0.00 0.00 0.00 33 1011.3
20260504015114 17 258 4.8 11.3 0.00 0.00 0.00 33 1011.1
20260504014610 17 16 4.8 8.0 0.00 0.00 0.00 32 1011.1
20260504014107 17 127 3.2 4.8 0.00 0.00 0.00 32 1010.8
20260504013605 17 256 3.2 9.7 0.00 0.00 0.00 32 1010.8
20260504013101 17 48 1.6 8.0 0.00 0.00 0.00 32 1010.8
20260504012559 18 154 3.2 8.0 0.00 0.00 0.00 32 1010.7
20260504012057 18 207 1.6 4.8 0.00 0.00 0.00 32 1010.6
20260504011554 18 200 0.0 3.2 0.00 0.00 0.00 32 1010.4
20260504011049 18 326 0.0 4.8 0.00 0.00 0.00 31 1010.4
20260504010545 18 244 3.2 4.8 0.00 0.00 0.00 31 1010.5
20260504010042 18 275 3.2 8.0 0.00 0.00 0.00 32 1010.4
20260504005538 18 126 1.6 3.2 0.00 0.00 0.00 31 1010.3
20260504005036 19 278 3.2 4.8 0.00 0.00 0.00 31 1010.3
20260504004534 19 278 1.6 4.8 0.00 0.00 0.00 31 1010.1
20260504004030 19 262 1.6 4.8 0.00 0.00 0.00 31 1010.1
20260504003526 19 37 1.6 3.2 0.00 0.00 0.00 31 1010.3
20260504003023 19 330 0.0 3.2 0.00 0.00 0.00 32 1010.1
20260504002520 19 343 1.6 9.7 0.00 0.00 0.00 30 1009.9
20260504002018 20 281 1.6 4.8 0.00 0.00 0.00 29 1009.8
20260504001515 20 353 1.6 4.8 0.00 0.00 0.00 29 1009.9
20260504001011 20 257 1.6 9.7 0.00 0.00 0.00 29 1009.8
20260504000508 20 287 1.6 8.0 0.00 0.00 0.00 29 1009.6
20260504000005 20 84 1.6 4.8 0.00 0.00 0.00 28 1009.8
20260503235504 21 9 3.2 9.7 0.00 0.00 0.00 28 1009.7
20260503235000 21 279 1.6 4.8 0.00 0.00 0.00 28 1009.5
20260503234457 21 206 4.8 9.7 0.00 0.00 0.00 28 1009.3
20260503233955 20 207 1.6 4.8 0.00 0.00 0.00 29 1009.5
20260503233451 20 239 1.6 16.1 0.00 0.00 0.00 29 1009.5
20260503232948 20 224 4.8 12.9 0.00 0.00 0.00 29 1009.4
20260503232445 21 179 4.8 4.8 0.00 0.00 0.00 28 1009.2
20260503231943 21 118 1.6 4.8 0.00 0.00 0.00 28 1009.3
20260503231440 21 354 4.8 11.3 0.00 0.00 0.00 27 1009.2
20260503230936 21 217 4.8 12.9 0.00 0.00 0.00 27 1009.2
20260503230433 22 46 4.8 9.7 0.00 0.00 0.00 25 1009.2
20260503225931 23 278 3.2 4.8 0.00 0.00 0.00 23 1008.9
20260503225427 22 274 0.0 4.8 0.00 0.00 0.00 24 1008.9
20260503224923 22 159 3.2 14.5 0.00 0.00 0.00 26 1008.8
20260503224420 22 353 1.6 12.9 0.00 0.00 0.00 25 1008.8
20260503223918 22 102 8.0 11.3 0.00 0.00 0.00 25 1009.1
20260503223416 22 138 4.8 8.0 0.00 0.00 0.00 25 1008.9
20260503222916 23 305 1.6 8.0 0.00 0.00 0.00 24 1008.8
20260503222415 23 81 1.6 3.2 0.00 0.00 0.00 23 1008.9
20260503221913 23 68 4.8 8.0 0.00 0.00 0.00 23 1009.1
20260503221411 23 106 0.0 14.5 0.00 0.00 0.00 24 1009.1
20260503220907 22 13 4.8 4.8 0.00 0.00 0.00 24 1009.1
20260503220404 22 260 3.2 4.8 0.00 0.00 0.00 26 1009.1
20260503215900 22 172 6.4 11.3 0.00 0.00 0.00 24 1008.9
20260503215358 22 274 3.2 12.9 0.00 0.00 0.00 26 1009.1
20260503214855 22 27 4.8 14.5 0.00 0.00 0.00 24 1008.9
20260503214352 22 138 1.6 9.7 0.00 0.00 0.00 26 1009.1
20260503213850 22 74 6.4 12.9 0.00 0.00 0.00 24 1008.9
20260503213347 23 159 4.8 8.0 0.00 0.00 0.00 24 1009.1
20260503212844 23 125 4.8 11.3 0.00 0.00 0.00 23 1008.8
20260503212342 23 119 6.4 12.9 0.00 0.00 0.00 24 1008.8
20260503211839 24 254 3.2 4.8 0.00 0.00 0.00 20 1008.8
20260503211336 25 22 1.6 4.8 0.00 0.00 0.00 20 1008.9
20260503210831 25 125 0.0 4.8 0.00 0.00 0.00 21 1009.2
20260503210328 25 114 1.6 3.2 0.00 0.00 0.00 20 1009.2
20260503205823 24 275 0.0 11.3 0.00 0.00 0.00 21 1009.3
20260503205320 25 132 4.8 9.7 0.00 0.00 0.00 20 1009.2
20260503204817 25 338 4.8 9.7 0.00 0.00 0.00 19 1009.5
20260503204314 25 278 0.0 4.8 0.00 0.00 0.00 19 1009.5
20260503203811 25 118 0.0 3.2 0.00 0.00 0.00 23 1009.7
20260503203309 25 311 1.6 4.8 0.00 0.00 0.00 18 1009.7
20260503202805 25 242 1.6 4.8 0.00 0.00 0.00 20 1009.8
20260503202304 24 170 1.6 3.2 0.00 0.00 0.00 21 1009.8
20260503201801 24 215 3.2 4.8 0.00 0.00 0.00 21 1009.9
20260503201258 24 247 4.8 4.8 0.00 0.00 0.00 19 1010.1
20260503200755 24 255 1.6 4.8 0.00 0.00 0.00 19 1010.1
20260503200251 24 278 1.6 3.2 0.00 0.00 0.00 19 1010.2
20260503195748 23 236 1.6 3.2 0.00 0.00 0.00 20 1010.4
20260503195245 23 261 3.2 11.3 0.00 0.00 0.00 21 1010.3
20260503194738 23 247 1.6 3.2 0.00 0.00 0.00 21 1010.3
20260503194233 23 276 0.0 3.2 0.00 0.00 0.00 21 1010.4
20260503193729 24 196 1.6 3.2 0.00 0.00 0.00 20 1010.7
20260503193226 23 233 1.6 9.7 0.00 0.00 0.00 20 1010.5
20260503192721 23 320 0.0 3.2 0.00 0.00 0.00 21 1010.6
20260503192216 21 104 1.6 8.0 0.00 0.00 0.00 23 1010.7
20260503191713 23 161 0.0 1.6 0.00 0.00 0.00 23 1010.9
20260503191211 23 261 1.6 3.2 0.00 0.00 0.00 22 1011.1
20260503190707 22 250 1.6 3.2 0.00 0.00 0.00 23 1011.3
20260503190204 22 271 1.6 3.2 0.00 0.00 0.00 23 1011.2
20260503185702 22 268 0.0 3.2 0.00 0.00 0.00 23 1011.2
20260503185156 22 245 3.2 3.2 0.00 0.00 0.00 23 1011.4
20260503184652 22 274 3.2 8.0 0.00 0.00 0.00 22 1011.5
20260503184148 22 274 1.6 1.6 0.00 0.00 0.00 23 1011.5
20260503183644 22 299 1.6 4.8 0.00 0.00 0.00 23 1011.4
20260503183142 22 198 1.6 1.6 0.00 0.00 0.00 25 1011.6
20260503182640 22 265 1.6 1.6 0.00 0.00 0.00 24 1011.7
20260503182139 22 266 0.0 1.6 0.00 0.00 0.00 24 1011.7
20260503181635 22 176 4.8 4.8 0.00 0.00 0.00 24 1011.6
20260503181132 21 233 3.2 4.8 0.00 0.00 0.00 25 1011.8
20260503180629 21 247 0.0 3.2 0.00 0.00 0.00 24 1012.1
20260503180126 21 231 1.6 4.8 0.00 0.00 0.00 25 1012.1
20260503175622 21 53 0.0 8.0 0.00 0.00 0.00 24 1012.2
20260503175120 21 99 3.2 4.8 0.00 0.00 0.00 26 1012.5
20260503174616 21 279 3.2 8.0 0.00 0.00 0.00 25 1012.3
20260503174114 21 186 1.6 3.2 0.00 0.00 0.00 25 1012.2
20260503173609 21 175 1.6 3.2 0.00 0.00 0.00 25 1012.5
20260503173106 21 222 4.8 8.0 0.00 0.00 0.00 24 1012.4
20260503172602 21 236 1.6 9.7 0.00 0.00 0.00 25 1012.4
20260503172059 21 216 0.0 3.2 0.00 0.00 0.00 24 1012.5
20260503171555 21 56 1.6 3.2 0.00 0.00 0.00 24 1012.5
20260503171053 21 299 1.6 3.2 0.00 0.00 0.00 24 1012.4
20260503170544 21 276 1.6 4.8 0.00 0.00 0.00 24 1012.6
20260503150931 15 263 0.0 1.6 0.00 0.00 0.00 31 1013.2
20260503150427 14 268 0.0 1.6 0.00 0.00 0.00 32 1013.1
20260503131320 7 311 0.0 3.2 0.00 0.00 0.00 45 1013.5
20260503130818 7 262 0.0 1.6 0.00 0.00 0.00 45 1013.5
20260503130315 7 268 0.0 1.6 0.00 0.00 0.00 46 1013.3
20260503110709 7 269 0.0 1.6 0.00 0.00 0.00 46 1013.8
20260503110206 7 277 1.6 3.2 0.00 0.00 0.00 46 1013.8
20260503100132 7 262 1.6 1.6 0.00 0.00 0.00 47 1013.7